Location: Fairmont
(43.6520°N, 94.4610°W)
Time: 22:17:21
(UTC-06:00)

Cosmos-2242 - Visible Passes

Search period start: 03 March 2015 00:00
Search period end: 13 March 2015 01:00
Orbit: 594 x 622 km, 82.5° (Epoch: 03 March)

Date Brightness Start Highest point End Pass type
(mag) Time Alt. Az. Time Alt. Az. Time Alt. Az.
08 Mar 5.3 21:11:41 13° NNE 21:11:41 13° NNE 21:12:14 10° NNE visible
08 Mar 6.0 22:48:31 12° NNW 22:48:31 12° NNW 22:49:04 10° NNW visible
09 Mar 6.3 07:11:37 10° NE 07:13:21 12° ENE 07:15:17 10° E visible
09 Mar 4.1 21:23:58 32° NNE 21:23:58 32° NNE 21:26:20 10° NNE visible
09 Mar 6.2 23:00:45 11° WNW 23:00:45 11° WNW 23:01:35 10° NW visible
10 Mar 4.9 19:58:33 10° E 19:58:50 11° E 19:59:51 10° ENE visible
10 Mar 3.2 21:35:13 56° SW 21:35:56 68° W 21:40:15 10° N visible
11 Mar 4.4 20:09:42 10° SE 20:12:32 18° E 20:15:32 10° NE visible
11 Mar 4.3 21:45:54 10° SW 21:49:55 39° WNW 21:53:59 10° N visible
12 Mar 3.8 20:22:36 10° SSE 20:26:18 30° E 20:30:06 10° NNE visible
12 Mar 5.3 22:00:29 10° SW 22:04:00 24° WNW 22:07:29 10° NNW visible
